Time,TemperatureF,DewpointF,PressureIn,WindDirection,WindDirectionDegrees,WindSpeedMPH,WindSpeedGustMPH,Humidity,HourlyPrecipIn,Conditions,Clouds,dailyrainin,SoftwareType,DateUTC
2013-06-18 00:22:00,65.0,37.0,-100.00,North,349,2.0,2.0,36,-99.99,,,-99.99,,2013-06-18 07:22:00,
2013-06-18 00:33:00,64.0,37.0,-100.00,North,356,2.0,3.0,36,-99.99,,,-99.99,,2013-06-18 07:33:00,
2013-06-18 00:43:00,64.0,38.0,-100.00,NNE,21,2.0,3.0,38,-99.99,,,-99.99,,2013-06-18 07:43:00,
2013-06-18 00:52:00,64.0,38.0,-100.00,NNE,21,2.0,3.0,38,-99.99,,,-99.99,,2013-06-18 07:52:00,
2013-06-18 01:01:00,62.0,34.0,-100.00,NNE,26,2.0,3.0,35,-99.99,,,-99.99,,2013-06-18 08:01:00,
2013-06-18 01:11:00,62.0,34.0,-100.00,NNE,15,2.0,4.0,35,-99.99,,,-99.99,,2013-06-18 08:11:00,
2013-06-18 01:23:00,63.0,34.0,-100.00,North,3,3.0,4.0,34,-99.99,,,-99.99,,2013-06-18 08:23:00,
2013-06-18 01:32:00,63.0,34.0,-100.00,North,3,3.0,4.0,34,-99.99,,,-99.99,,2013-06-18 08:32:00,
2013-06-18 01:43:00,63.0,34.0,-100.00,North,350,3.0,5.0,34,-99.99,,,-99.99,,2013-06-18 08:43:00,
2013-06-18 01:52:00,63.0,34.0,-100.00,North,353,3.0,5.0,34,-99.99,,,-99.99,,2013-06-18 08:52:00,
2013-06-18 02:01:00,62.0,31.0,-100.00,North,3,3.0,6.0,31,-99.99,,,-99.99,,2013-06-18 09:01:00,
2013-06-18 02:11:00,62.0,29.0,-100.00,North,7,4.0,7.0,29,-99.99,,,-99.99,,2013-06-18 09:11:00,
2013-06-18 02:22:00,62.0,29.0,-100.00,North,7,4.0,7.0,29,-99.99,,,-99.99,,2013-06-18 09:22:00,
2013-06-18 02:34:00,63.0,29.0,-100.00,North,359,4.0,7.0,27,-99.99,,,-99.99,,2013-06-18 09:34:00,
2013-06-18 02:42:00,63.0,25.0,-100.00,North,352,4.0,6.0,23,-99.99,,,-99.99,,2013-06-18 09:42:00,
2013-06-18 02:53:00,63.0,25.0,-100.00,North,352,4.0,6.0,23,-99.99,,,-99.99,,2013-06-18 09:53:00,
2013-06-18 03:01:00,63.0,21.0,-100.00,NNW,343,3.0,5.0,20,-99.99,,,-99.99,,2013-06-18 10:01:00,
2013-06-18 03:11:00,63.0,21.0,-100.00,NNW,343,3.0,5.0,20,-99.99,,,-99.99,,2013-06-18 10:11:00,
2013-06-18 03:22:00,64.0,20.0,-100.00,NNE,17,2.0,4.0,18,-99.99,,,-99.99,,2013-06-18 10:22:00,
2013-06-18 03:33:00,65.0,19.0,-100.00,North,1,3.0,4.0,17,-99.99,,,-99.99,,2013-06-18 10:33:00,
2013-06-18 04:42:00,65.0,16.0,-100.00,North,4,2.0,3.0,15,-99.99,,,-99.99,,2013-06-18 11:42:00,
2013-06-18 05:22:00,65.0,18.0,-100.00,North,355,0.0,2.0,16,-99.99,,,-99.99,,2013-06-18 12:22:00,
2013-06-18 05:42:00,65.0,18.0,-100.00,NW,317,0.0,2.0,16,-99.99,,,-99.99,,2013-06-18 12:42:00,
2013-06-18 06:22:00,64.0,20.0,-100.00,SW,229,0.0,1.0,18,-99.99,,,-99.99,,2013-06-18 13:22:00,
2013-06-18 06:43:00,66.0,20.0,-100.00,SE,129,1.0,2.0,17,-99.99,,,-99.99,,2013-06-18 13:43:00,
2013-06-18 06:52:00,66.0,20.0,-100.00,SE,129,1.0,2.0,17,-99.99,,,-99.99,,2013-06-18 13:52:00,
2013-06-18 07:22:00,69.0,22.0,-100.00,East,94,1.0,2.0,17,-99.99,,,-99.99,,2013-06-18 14:22:00,
2013-06-18 07:43:00,71.0,27.0,-100.00,East,99,1.0,2.0,19,-99.99,,,-99.99,,2013-06-18 14:43:00,
2013-06-18 08:01:00,71.0,31.0,-100.00,East,93,2.0,3.0,23,-99.99,,,-99.99,,2013-06-18 15:01:00,
2013-06-18 08:11:00,71.0,31.0,-100.00,East,93,2.0,3.0,23,-99.99,,,-99.99,,2013-06-18 15:11:00,
2013-06-18 08:22:00,71.0,31.0,-100.00,East,95,2.0,3.0,23,-99.99,,,-99.99,,2013-06-18 15:22:00,
2013-06-18 08:33:00,71.0,32.0,-100.00,East,88,2.0,4.0,24,-99.99,,,-99.99,,2013-06-18 15:33:00,
2013-06-18 08:42:00,72.0,34.0,-100.00,ESE,110,2.0,4.0,25,-99.99,,,-99.99,,2013-06-18 15:42:00,
2013-06-18 08:53:00,72.0,34.0,-100.00,ESE,110,2.0,4.0,25,-99.99,,,-99.99,,2013-06-18 15:53:00,
2013-06-18 09:01:00,72.0,37.0,-100.00,SE,137,4.0,10.0,28,-99.99,,,-99.99,,2013-06-18 16:01:00,
2013-06-18 09:11:00,72.0,37.0,-100.00,SE,137,4.0,10.0,28,-99.99,,,-99.99,,2013-06-18 16:11:00,
2013-06-18 09:22:00,74.0,36.0,-100.00,NNE,16,5.0,12.0,25,-99.99,,,-99.99,,2013-06-18 16:22:00,
2013-06-18 09:33:00,75.0,31.0,-100.00,North,11,4.0,9.0,20,-99.99,,,-99.99,,2013-06-18 16:33:00,
2013-06-18 09:43:00,76.0,32.0,-100.00,North,5,3.0,11.0,20,-99.99,,,-99.99,,2013-06-18 16:43:00,
2013-06-18 09:52:00,76.0,32.0,-100.00,North,5,3.0,11.0,20,-99.99,,,-99.99,,2013-06-18 16:52:00,
2013-06-18 10:01:00,76.0,29.0,-100.00,WNW,286,3.0,8.0,18,-99.99,,,-99.99,,2013-06-18 17:01:00,
2013-06-18 10:11:00,77.0,30.0,-100.00,North,356,2.0,11.0,18,-99.99,,,-99.99,,2013-06-18 17:11:00,
2013-06-18 10:22:00,77.0,30.0,-100.00,North,350,2.0,5.0,18,-99.99,,,-99.99,,2013-06-18 17:22:00,
2013-06-18 10:33:00,77.0,32.0,-100.00,SSW,199,3.0,7.0,19,-99.99,,,-99.99,,2013-06-18 17:33:00,
2013-06-18 10:43:00,77.0,30.0,-100.00,NW,309,2.0,6.0,18,-99.99,,,-99.99,,2013-06-18 17:43:00,
2013-06-18 10:53:00,78.0,31.0,-100.00,NW,319,2.0,8.0,18,-99.99,,,-99.99,,2013-06-18 17:53:00,
2013-06-18 11:01:00,78.0,31.0,-100.00,West,270,3.0,9.0,18,-99.99,,,-99.99,,2013-06-18 18:01:00,
2013-06-18 11:11:00,77.0,30.0,-100.00,WNW,286,3.0,10.0,18,-99.99,,,-99.99,,2013-06-18 18:11:00,
2013-06-18 11:22:00,78.0,31.0,-100.00,West,280,3.0,7.0,18,-99.99,,,-99.99,,2013-06-18 18:22:00,
2013-06-18 11:33:00,78.0,31.0,-100.00,WNW,299,4.0,11.0,18,-99.99,,,-99.99,,2013-06-18 18:33:00,
2013-06-18 11:42:00,78.0,34.0,-100.00,North,360,3.0,8.0,20,-99.99,,,-99.99,,2013-06-18 18:42:00,
2013-06-18 11:53:00,78.0,34.0,-100.00,West,262,4.0,8.0,20,-99.99,,,-99.99,,2013-06-18 18:53:00,
2013-06-18 12:01:00,78.0,35.0,-100.00,WNW,282,4.0,11.0,21,-99.99,,,-99.99,,2013-06-18 19:01:00,
2013-06-18 12:11:00,78.0,35.0,-100.00,WNW,282,4.0,11.0,21,-99.99,,,-99.99,,2013-06-18 19:11:00,
2013-06-18 12:22:00,79.0,34.0,-100.00,NW,307,3.0,8.0,20,-99.99,,,-99.99,,2013-06-18 19:22:00,
2013-06-18 12:33:00,79.0,36.0,-100.00,WNW,297,3.0,10.0,21,-99.99,,,-99.99,,2013-06-18 19:33:00,
2013-06-18 12:42:00,78.0,39.0,-100.00,WSW,239,4.0,10.0,25,-99.99,,,-99.99,,2013-06-18 19:42:00,
2013-06-18 12:52:00,78.0,39.0,-100.00,WSW,239,4.0,10.0,25,-99.99,,,-99.99,,2013-06-18 19:52:00,
2013-06-18 13:01:00,80.0,40.0,-100.00,West,261,3.0,8.0,24,-99.99,,,-99.99,,2013-06-18 20:01:00,
2013-06-18 13:11:00,79.0,40.0,-100.00,WSW,251,3.0,8.0,25,-99.99,,,-99.99,,2013-06-18 20:11:00,
2013-06-18 13:22:00,78.0,41.0,-100.00,WSW,240,4.0,15.0,27,-99.99,,,-99.99,,2013-06-18 20:22:00,
2013-06-18 13:33:00,79.0,40.0,-100.00,NW,304,4.0,11.0,25,-99.99,,,-99.99,,2013-06-18 20:33:00,
2013-06-18 13:43:00,78.0,44.0,-100.00,SW,218,5.0,11.0,30,-99.99,,,-99.99,,2013-06-18 20:43:00,
2013-06-18 13:52:00,78.0,44.0,-100.00,SW,218,5.0,11.0,30,-99.99,,,-99.99,,2013-06-18 20:52:00,
2013-06-18 14:01:00,78.0,44.0,-100.00,WSW,240,3.0,11.0,30,-99.99,,,-99.99,,2013-06-18 21:01:00,
2013-06-18 14:11:00,77.0,45.0,-100.00,SW,232,5.0,12.0,32,-99.99,,,-99.99,,2013-06-18 21:11:00,
2013-06-18 14:22:00,78.0,45.0,-100.00,SW,220,5.0,11.0,31,-99.99,,,-99.99,,2013-06-18 21:22:00,
2013-06-18 14:33:00,78.0,45.0,-100.00,SSW,213,3.0,10.0,31,-99.99,,,-99.99,,2013-06-18 21:33:00,
2013-06-18 14:43:00,77.0,45.0,-100.00,SSW,207,4.0,11.0,32,-99.99,,,-99.99,,2013-06-18 21:43:00,
2013-06-18 14:52:00,77.0,45.0,-100.00,SSW,213,4.0,9.0,32,-99.99,,,-99.99,,2013-06-18 21:52:00,
2013-06-18 15:01:00,78.0,46.0,-100.00,SW,214,4.0,8.0,32,-99.99,,,-99.99,,2013-06-18 22:01:00,
2013-06-18 15:11:00,78.0,46.0,-100.00,SW,214,4.0,8.0,32,-99.99,,,-99.99,,2013-06-18 22:11:00,
2013-06-18 15:22:00,77.0,45.0,-100.00,SSW,205,4.0,10.0,32,-99.99,,,-99.99,,2013-06-18 22:22:00,
2013-06-18 15:34:00,76.0,44.0,-100.00,SSW,209,4.0,10.0,32,-99.99,,,-99.99,,2013-06-18 22:34:00,
2013-06-18 15:42:00,77.0,45.0,-100.00,SW,228,3.0,11.0,32,-99.99,,,-99.99,,2013-06-18 22:42:00,
2013-06-18 15:53:00,77.0,45.0,-100.00,SW,228,3.0,11.0,32,-99.99,,,-99.99,,2013-06-18 22:53:00,
2013-06-18 16:01:00,77.0,45.0,-100.00,SSW,207,4.0,8.0,32,-99.99,,,-99.99,,2013-06-18 23:01:00,
2013-06-18 16:11:00,77.0,45.0,-100.00,SSW,209,3.0,10.0,32,-99.99,,,-99.99,,2013-06-18 23:11:00,
2013-06-18 16:23:00,76.0,44.0,-100.00,SW,214,4.0,10.0,32,-99.99,,,-99.99,,2013-06-18 23:23:00,
2013-06-18 16:35:00,76.0,44.0,-100.00,SW,214,4.0,10.0,32,-99.99,,,-99.99,,2013-06-18 23:35:00,
2013-06-18 16:44:00,76.0,44.0,-100.00,SW,221,3.0,10.0,32,-99.99,,,-99.99,,2013-06-18 23:44:00,
2013-06-18 16:53:00,75.0,45.0,-100.00,SW,219,4.0,11.0,34,-99.99,,,-99.99,,2013-06-18 23:53:00,
2013-06-18 17:01:00,75.0,45.0,-100.00,SW,228,3.0,8.0,34,-99.99,,,-99.99,,2013-06-19 00:01:00,
2013-06-18 17:11:00,75.0,44.0,-100.00,SW,228,3.0,9.0,33,-99.99,,,-99.99,,2013-06-19 00:11:00,
2013-06-18 17:22:00,75.0,44.0,-100.00,WSW,239,3.0,9.0,33,-99.99,,,-99.99,,2013-06-19 00:22:00,
2013-06-18 17:33:00,75.0,44.0,-100.00,WSW,239,3.0,9.0,33,-99.99,,,-99.99,,2013-06-19 00:33:00,
2013-06-18 17:43:00,74.0,44.0,-100.00,SW,218,4.0,9.0,34,-99.99,,,-99.99,,2013-06-19 00:43:00,
2013-06-18 17:53:00,73.0,44.0,-100.00,SSW,213,3.0,9.0,36,-99.99,,,-99.99,,2013-06-19 00:53:00,
2013-06-18 18:01:00,73.0,45.0,-100.00,SW,216,2.0,7.0,37,-99.99,,,-99.99,,2013-06-19 01:01:00,
2013-06-18 18:11:00,71.0,48.0,-100.00,SW,230,4.0,9.0,44,-99.99,,,-99.99,,2013-06-19 01:11:00,
2013-06-18 18:22:00,70.0,49.0,-100.00,SSW,211,3.0,7.0,47,-99.99,,,-99.99,,2013-06-19 01:22:00,
2013-06-18 18:32:00,70.0,49.0,-100.00,SSW,211,3.0,7.0,47,-99.99,,,-99.99,,2013-06-19 01:32:00,
2013-06-18 18:42:00,70.0,50.0,-100.00,SW,234,3.0,6.0,49,-99.99,,,-99.99,,2013-06-19 01:42:00,
2013-06-18 18:53:00,69.0,50.0,-100.00,WSW,241,2.0,5.0,51,-99.99,,,-99.99,,2013-06-19 01:53:00,
2013-06-18 19:01:00,68.0,51.0,-100.00,West,280,2.0,4.0,54,-99.99,,,-99.99,,2013-06-19 02:01:00,
2013-06-18 19:11:00,66.0,51.0,-100.00,West,270,2.0,4.0,58,-99.99,,,-99.99,,2013-06-19 02:11:00,
2013-06-18 19:21:00,66.0,51.0,-100.00,West,270,2.0,4.0,58,-99.99,,,-99.99,,2013-06-19 02:21:00,
2013-06-18 19:32:00,67.0,49.0,-100.00,NNW,327,3.0,5.0,53,-99.99,,,-99.99,,2013-06-19 02:32:00,
2013-06-18 19:42:00,66.0,49.0,-100.00,NNW,334,3.0,5.0,55,-99.99,,,-99.99,,2013-06-19 02:42:00,
2013-06-18 19:51:00,65.0,49.0,-100.00,NNW,327,2.0,5.0,57,-99.99,,,-99.99,,2013-06-19 02:51:00,
2013-06-18 20:01:00,65.0,50.0,-100.00,NW,317,2.0,4.0,59,-99.99,,,-99.99,,2013-06-19 03:01:00,
2013-06-18 20:11:00,64.0,51.0,-100.00,NW,307,3.0,4.0,62,-99.99,,,-99.99,,2013-06-19 03:11:00,
2013-06-18 20:21:00,64.0,50.0,-100.00,NNW,328,3.0,4.0,61,-99.99,,,-99.99,,2013-06-19 03:21:00,
2013-06-18 20:32:00,63.0,50.0,-100.00,NNW,331,4.0,5.0,63,-99.99,,,-99.99,,2013-06-19 03:32:00,
2013-06-18 20:42:00,63.0,51.0,-100.00,NNW,327,4.0,5.0,64,-99.99,,,-99.99,,2013-06-19 03:42:00,
2013-06-18 20:52:00,63.0,51.0,-100.00,NW,323,4.0,5.0,64,-99.99,,,-99.99,,2013-06-19 03:52:00,
2013-06-18 21:01:00,63.0,50.0,-100.00,NNW,332,4.0,4.0,63,-99.99,,,-99.99,,2013-06-19 04:01:00,
2013-06-18 21:11:00,63.0,49.0,-100.00,NNW,335,3.0,4.0,61,-99.99,,,-99.99,,2013-06-19 04:11:00,
2013-06-18 21:22:00,63.0,49.0,-100.00,NNW,344,3.0,4.0,61,-99.99,,,-99.99,,2013-06-19 04:22:00,
2013-06-18 21:32:00,63.0,50.0,-100.00,North,0,2.0,4.0,62,-99.99,,,-99.99,,2013-06-19 04:32:00,
2013-06-18 21:42:00,62.0,50.0,-100.00,NNW,345,2.0,3.0,64,-99.99,,,-99.99,,2013-06-19 04:42:00,
2013-06-18 21:52:00,62.0,49.0,-100.00,NNW,345,1.0,2.0,63,-99.99,,,-99.99,,2013-06-19 04:52:00,
2013-06-18 22:01:00,62.0,49.0,-100.00,North,352,1.0,2.0,63,-99.99,,,-99.99,,2013-06-19 05:01:00,
2013-06-18 22:11:00,62.0,49.0,-100.00,NNE,23,0.0,1.0,63,-99.99,,,-99.99,,2013-06-19 05:11:00,
2013-06-18 22:22:00,62.0,49.0,-100.00,NE,45,0.0,1.0,63,-99.99,,,-99.99,,2013-06-19 05:22:00,
2013-06-18 22:32:00,61.0,48.0,-100.00,NNE,33,0.0,2.0,62,-99.99,,,-99.99,,2013-06-19 05:32:00,
2013-06-18 22:42:00,61.0,47.0,-100.00,NNE,19,1.0,2.0,60,-99.99,,,-99.99,,2013-06-19 05:42:00,
2013-06-18 22:52:00,62.0,47.0,-100.00,NNW,336,0.0,2.0,57,-99.99,,,-99.99,,2013-06-19 05:52:00,
2013-06-18 23:01:00,61.0,45.0,-100.00,NW,324,0.0,2.0,55,-99.99,,,-99.99,,2013-06-19 06:01:00,
2013-06-18 23:11:00,61.0,45.0,-100.00,NW,324,0.0,2.0,55,-99.99,,,-99.99,,2013-06-19 06:11:00,
2013-06-18 23:21:00,61.0,42.0,-100.00,NNW,331,1.0,2.0,49,-99.99,,,-99.99,,2013-06-19 06:21:00,
2013-06-18 23:33:00,62.0,39.0,-100.00,NNW,333,1.0,3.0,42,-99.99,,,-99.99,,2013-06-19 06:33:00,
2013-06-18 23:42:00,62.0,33.0,-100.00,NNW,333,3.0,5.0,34,-99.99,,,-99.99,,2013-06-19 06:42:00,
2013-06-18 23:52:00,62.0,33.0,-100.00,NNW,329,3.0,4.0,33,-99.99,,,-99.99,,2013-06-19 06:52:00,